Dewpoint
55 49 51 50 49 38 29 36 20 33 33 29 27 30 27 30 33 29 27 28 26 27 32 33 36 32 29 34 34 38 40 37 39 39 40 48 56 59 64 64 65 65 65 65 66 67 67 68 68 70 70 70 69 69 69 69 70 69 68 69 70 69 68 69 69 69 68 68 68 68 68 69 69 69 68 67 68 67 68 68 68 67 68 67 67 68 68 67 68 68 68 68 68 68 68 69 68
49 48 48 51 41 34 26 33 31 27 30 26 27 29 30 30 29 26 27 26 28 27 33 34 33 32 29 30 38 39 39 44 45 47 51 55 57 61 62 63 66 65 65 66 66 66 67 68 68 69 70 70 70 69 69 69 70 69 69 69 69 70 69 69 69 69 69 68 68 68 68 68 68 68 68 68 68 67 67 68 67 68 68 68 68 67 67 67 68 68 68 68 68 69 69 68 67
48 46 41 35 31 30 30 31 24 27 25 24 27 28 31 27 24 22 21 24 27 28 32 33 31 29 33 32 32 36 40 45 42 48 50 52 48 49 60 64 65 65 65 66 66 66 67 67 67 68 69 70 70 69 69 69 69 69 69 69 69 69 70 70 69 69 69 69 69 68 67 68 68 67 68 68 68 68 67 68 67 67 68 68 68 68 67 67 68 68 68 68 68 68 68 67 67
50 47 42 37 27 32 28 28 32 26 27 26 26 27 28 27 23 22 25 29 29 31 31 30 27 33 32 32 34 36 42 45 43 47 46 47 52 56 54 62 65 65 65 67 66 66 66 66 67 67 68 69 70 70 69 69 69 69 69 69 69 69 69 69 69 69 69 69 69 69 68 68 67 67 67 68 67 68 68 68 68 68 67 67 68 68 67 68 68 68 67 68 68 67 68 67 67
44 44 40 32 26 33 34 32 26 27 23 27 25 27 25 26 24 22 22 25 28 31 29 30 30 33 33 33 36 35 38 43 43 47 46 54 49 49 54 60 62 64 65 65 64 66 66 66 66 67 68 69 69 70 70 69 69 69 69 69 69 68 69 69 69 68 68 69 69 68 68 68 68 67 67 67 65 67 67 67 67 67 68 67 67 67 67 66 66 67 67 68 67 67 67 66 67
38 33 35 33 30 33 32 26 27 25 26 28 27 25 24 25 24 25 23 23 25 29 29 29 28 28 28 30 35 33 36 35 41 38 40 42 46 53 55 56 56 60 62 64 65 65 66 66 66 66 67 68 69 70 70 70 69 70 69 69 69 69 69 68 68 68 68 68 68 68 68 68 68 68 68 67 67 67 68 66 67 65 67 67 67 67 66 66 65 66 66 66 66 66 66 66 65
35 30 35 34 35 36 31 27 27 25 25 24 22 22 25 29 31 28 24 25 26 27 29 30 31 35 31 26 31 34 39 39 33 38 41 47 50 52 55 51 52 55 61 62 63 64 67 65 65 66 67 68 69 70 70 70 69 69 69 69 69 69 69 69 69 69 69 69 68 68 68 68 68 68 68 68 68 67 67 67 66 67 66 66 67 67 66 66 66 66 66 66 66 65 64 65 66
46 40 37 26 33 32 30 31 29 27 25 26 24 24 27 32 32 28 29 28 28 21 25 30 33 30 27 29 26 36 39 44 36 42 46 45 50 51 53 52 49 47 51 57 61 62 64 64 64 65 66 67 68 69 70 70 69 69 69 69 69 69 69 69 69 69 68 68 68 69 68 68 68 68 68 68 68 68 68 67 67 67 67 66 66 66 66 66 65 66 66 65 66 66 65 66 66
35 33 40 33 28 34 29 28 26 28 27 29 26 29 36 29 29 33 31 28 34 33 29 30 35 30 28 23 27 33 34 44 36 44 48 49 48 50 52 52 46 52 57 55 58 60 62 64 63 63 64 66 67 68 69 69 69 69 69 69 69 69 69 69 69 69 69 68 68 68 68 68 68 68 68 68 67 67 67 67 67 67 66 66 67 67 66 66 66 66 65 65 65 65 65 65 66
30 37 28 33 33 28 28 29 27 29 30 29 26 25 26 27 26 27 31 32 34 38 33 37 33 24 26 32 31 29 33 47 48 47 46 48 50 51 51 51 51 55 53 51 52 56 58 62 62 62 63 64 66 67 68 68 69 69 69 69 69 69 69 68 69 69 68 68 68 67 67 67 67 67 67 67 67 67 67 67 67 67 66 67 67 67 66 66 65 65 65 65 65 65 65 65 65
27 37 39 28 28 26 26 28 28 29 29 30 27 28 28 29 26 24 26 31 37 35 37 41 32 32 30 29 27 36 42 43 43 43 45 48 49 49 45 51 53 54 49 54 54 55 57 60 62 61 62 62 64 65 66 67 67 68 68 69 69 69 69 68 68 68 68 68 68 67 67 67 67 67 67 67 67 67 67 67 66 66 66 66 66 67 66 66 65 65 65 64 65 65 65 65 65
20 32 35 28 30 26 27 27 30 29 30 27 25 26 27 27 26 24 29 24 32 34 34 38 35 33 31 25 28 31 39 42 43 44 48 49 42 43 49 41 51 50 52 52 55 54 58 60 64 62 60 61 62 63 64 65 65 66 67 68 68 68 69 69 68 68 68 68 68 68 67 67 66 67 66 66 66 67 67 67 67 66 66 66 66 66 65 66 65 65 65 65 65 64 64 64 64
31 39 26 25 27 27 30 28 29 32 29 25 26 25 28 27 23 24 27 31 35 36 31 36 38 38 28 29 29 38 38 42 46 47 49 45 44 42 46 41 49 51 51 53 53 55 58 57 60 63 62 59 60 60 61 62 63 64 65 66 67 67 68 68 68 68 68 68 68 67 67 67 66 66 66 66 65 65 66 66 66 66 66 66 66 66 65 66 65 65 65 65 65 65 64 64 63
29 35 31 27 31 28 29 28 29 29 27 26 28 29 28 27 25 26 30 27 23 25 34 36 35 38 32 32 32 32 33 43 45 47 44 50 49 48 50 45 47 47 50 48 49 50 52 56 56 60 62 63 64 63 60 60 60 62 63 64 65 65 66 66 67 67 67 66 66 66 66 66 66 66 66 66 66 66 65 64 63 65 66 66 66 66 65 66 65 65 65 65 65 64 64 63 64
31 35 31 32 28 28 28 25 26 27 27 26 29 28 26 28 28 28 26 23 22 28 31 38 36 34 27 30 25 31 36 41 46 46 47 49 51 49 51 49 49 48 46 46 46 48 50 52 52 55 60 60 62 63 64 64 60 60 61 62 63 63 64 64 64 64 65 65 65 65 65 65 65 64 65 64 64 64 63 63 63 64 65 66 66 66 66 65 65 65 64 64 64 64 65 64 64
33 32 28 25 23 24 24 24 29 27 26 26 28 28 27 25 28 27 27 29 27 31 36 30 31 28 31 34 31 36 38 41 44 46 46 50 53 51 49 45 44 43 47 47 44 47 48 48 50 51 52 55 58 60 62 63 61 60 59 60 60 61 61 61 61 61 62 62 63 63 64 65 64 65 63 63 62 62 62 61 60 62 65 65 66 65 65 65 65 65 64 64 64 65 64 64 63
34 35 14 18 12 20 22 21 24 18 24 26 28 28 25 23 29 29 31 32 29 26 28 27 33 34 29 33 35 37 39 43 44 47 52 47 36 31 32 34 38 40 49 44 46 45 48 48 48 48 51 52 54 58 59 62 62 60 60 59 59 59 60 60 59 59 59 60 61 61 62 67 66 65 64 63 61 63 58 59 60 63 64 65 65 65 65 65 65 65 64 64 65 63 62 61 61
31 17 15 11 16 15 21 20 22 29 23 26 28 29 28 27 27 28 31 30 29 27 29 24 27 33 37 33 40 42 42 43 45 46 45 41 40 30 30 33 34 34 40 42 43 45 48 48 50 49 50 51 52 56 59 61 61 60 62 62 62 61 60 60 61 63 62 65 60 64 65 66 64 63 63 61 62 62 62 58 59 62 63 64 64 64 64 64 64 64 63 62 62 62 61 61 60
23 19 18 9 20 21 26 27 29 28 26 29 28 29 28 26 27 28 26 24 25 21 21 24 23 23 28 38 39 40 42 43 44 44 43 42 42 42 38 38 39 37 39 41 41 44 48 49 50 49 51 51 52 52 56 57 58 58 61 62 62 60 60 61 62 62 63 64 65 66 65 64 65 62 62 62 61 58 61 57 57 58 61 62 63 63 62 62 63 62 62 61 60 60 62 61 61
23 23 12 17 21 27 27 30 34 33 34 28 30 30 29 28 31 31 26 22 25 20 18 21 22 20 21 26 33 39 42 42 46 47 45 44 44 42 40 39 38 39 41 40 41 47 46 48 48 49 51 52 53 54 55 53 54 56 57 59 60 60 60 60 61 61 62 63 63 63 65 64 64 64 56 56 57 63 62 56 57 58 58 59 60 62 60 60 60 60 60 60 60 60 60 60 59
24 19 14 18 24 26 27 29 34 35 35 33 31 30 28 28 28 29 27 24 20 18 18 19 20 20 22 25 28 36 39 42 45 48 48 43 43 42 38 38 36 38 40 41 42 42 46 46 47 49 50 52 54 53 53 52 53 55 57 58 59 59 59 59 59 60 61 62 63 63 65 65 65 63 63 62 60 59 61 60 60 60 61 62 60 61 62 61 59 60 60 59 59 60 60 59 59
24 24 24 23 27 26 28 28 39 37 40 36 33 31 27 29 29 29 28 23 13 16 20 23 23 24 25 26 27 30 34 40 41 42 43 45 44 38 37 37 37 37 40 40 40 42 45 46 47 50 51 53 54 53 52 55 56 53 55 57 57 58 59 58 59 59 60 61 62 62 61 62 64 63 62 61 60 58 59 61 60 57 60 61 60 60 62 60 59 59 58 58 58 60 60 60 59
20 27 28 26 27 25 28 30 35 39 37 34 31 30 29 29 29 29 28 26 20 22 24 27 27 27 27 28 28 28 31 35 39 40 40 43 44 42 38 34 34 33 39 39 42 42 45 46 47 50 52 53 55 54 54 56 55 55 57 57 57 57 58 58 58 59 60 61 62 63 62 63 63 63 61 61 60 58 58 61 60 58 58 58 59 60 61 60 58 57 57 58 58 59 59 59 59
25 20 28 27 28 27 29 30 32 33 36 36 34 32 28 30 24 33 31 27 24 24 28 29 28 28 28 27 28 28 29 33 33 37 39 39 42 43 42 39 34 37 42 40 41 43 48 46 46 48 50 52 54 54 54 55 56 56 57 57 58 57 57 57 57 58 59 60 61 62 63 64 62 62 61 60 60 59 57 58 60 59 58 57 57 58 59 61 59 58 58 58 58 57 58 59 58
21 23 27 28 30 30 31 31 31 32 37 37 34 31 27 30 27 28 26 26 26 26 27 27 28 28 27 27 27 28 28 29 31 34 35 33 37 40 41 40 39 41 39 39 41 44 46 46 45 47 50 51 52 54 54 56 56 57 57 57 57 56 57 56 57 58 59 59 60 61 62 62 62 60 60 60 60 59 59 59 59 58 58 56 57 56 57 60 59 57 57 57 56 57 58 58 58
24 27 30 31 32 32 33 32 30 30 30 36 32 28 25 27 29 27 25 24 28 28 26 27 28 26 25 26 27 28 28 28 33 36 34 35 35 34 33 34 37 35 36 37 43 45 45 44 46 45 48 50 52 54 55 56 57 57 58 57 57 56 56 57 58 58 58 59 59 60 61 62 61 61 62 61 60 59 59 60 59 59 58 57 56 56 56 59 61 57 57 57 56 57 57 56 56
30 31 33 32 32 33 31 27 26 26 26 31 25 24 25 27 24 11 23 26 29 28 25 27 26 25 22 24 26 27 28 28 28 31 31 34 33 33 32 36 34 33 36 36 39 44 46 45 46 45 47 53 52 52 55 55 56 56 57 57 57 57 57 58 57 58 58 59 59 60 60 60 61 62 59 60 60 59 58 56 55 55 56 56 55 57 59 59 58 57 57 56 56 56 56 56 54
33 34 33 32 31 28 28 25 23 24 26 28 27 25 24 24 24 13 21 26 28 27 28 25 25 26 24 24 24 28 28 29 30 29 29 30 31 30 32 32 31 35 37 36 42 43 44 45 45 45 47 50 52 52 54 55 56 56 57 57 57 58 58 57 57 57 58 58 60 60 60 60 59 60 62 60 60 59 57 57 55 55 55 56 57 58 59 58 57 56 57 57 56 55 54 53 52
35 31 22 25 27 25 22 22 23 25 20 27 28 19 19 24 17 20 23 23 27 25 24 24 26 25 26 27 25 26 26 28 30 29 29 31 32 33 30 34 32 33 37 39 42 44 43 47 46 44 46 50 50 51 53 54 56 56 56 57 57 58 58 58 58 57 58 58 59 60 60 60 60 59 59 59 59 58 58 56 55 56 56 56 58 59 58 57 56 56 56 56 54 53 52 52 51
34 30 27 19 23 20 22 22 23 21 21 28 22 11 8 17 17 18 22 23 26 24 23 23 24 25 26 26 25 24 25 29 29 32 32 32 33 32 34 33 36 36 38 41 41 43 45 47 46 46 48 48 51 51 53 54 55 55 56 56 56 57 57 57 57 59 59 59 59 59 59 59 59 59 59 60 59 58 57 56 56 56 57 58 58 58 57 56 55 55 55 55 52 53 52 50 49
25 27 27 26 17 16 23 23 25 19 25 27 24 15 9 6 10 14 21 20 23 20 20 21 23 24 25 28 28 28 25 28 25 27 32 33 33 33 34 35 35 37 40 39 41 44 45 48 47 45 47 49 51 50 52 53 54 55 55 55 55 56 56 56 57 57 57 57 58 58 58 58 59 59 60 60 59 58 56 56 57 57 56 58 57 57 56 55 56 55 54 54 53 52 52 50 47
24 19 23 26 20 20 22 27 26 21 23 26 20 19 13 12 15 13 19 22 22 20 19 19 20 23 24 25 25 24 23 24 28 27 28 29 31 32 35 35 36 39 37 39 42 44 43 47 48 46 48 49 51 52 53 54 54 55 55 53 55 55 55 55 55 55 55 56 56 57 57 57 58 58 58 59 59 57 56 56 57 56 58 58 57 56 56 55 55 56 55 54 52 51 49 48 46
20 20 20 19 21 20 17 24 26 27 26 25 22 14 17 17 19 19 22 21 22 20 19 20 19 20 22 24 26 25 26 27 29 27 27 29 30 33 36 36 39 38 39 40 42 42 43 46 48 47 44 48 50 50 52 55 53 53 54 54 55 55 54 54 54 54 55 54 55 55 55 55 56 57 57 57 57 57 57 57 57 57 57 57 55 55 57 56 55 55 54 52 50 48 47 45 43
20 24 18 24 17 19 16 22 25 26 25 22 25 24 21 20 19 22 25 24 23 21 20 20 22 24 25 26 26 25 24 26 25 25 26 27 31 31 32 38 41 43 41 42 41 42 42 46 48 49 48 47 46 49 51 52 52 52 53 53 53 54 54 53 54 54 53 53 54 54 55 55 55 56 56 56 57 57 58 58 58 57 56 56 56 55 55 55 55 54 53 52 49 47 45 45 43
19 20 20 21 24 22 18 19 23 24 28 25 25 25 24 23 23 22 23 24 23 22 22 22 22 23 25 26 26 25 25 26 26 27 28 31 31 34 37 40 41 43 42 41 43 42 44 44 47 49 49 46 46 50 51 51 52 51 51 51 51 51 53 53 53 52 53 52 52 53 54 54 54 55 56 56 56 56 56 57 57 57 56 56 55 54 54 54 55 56 53 50 49 47 45 44 42
23 22 25 25 22 21 22 21 24 27 26 26 23 22 19 19 21 22 23 23 24 24 24 25 24 24 25 25 26 26 27 25 27 29 32 31 34 37 37 39 41 44 41 41 42 43 43 44 45 48 46 44 46 48 51 51 50 51 52 51 52 51 51 51 52 51 52 51 52 51 52 52 53 53 55 56 56 56 56 57 56 56 55 56 54 54 53 53 54 53 51 48 45 43 43 43 41
24 27 28 27 26 24 25 27 24 29 27 22 24 24 23 23 24 24 25 25 25 25 25 25 26 25 25 24 24 26 26 25 33 34 34 34 36 38 42 41 41 40 42 41 41 42 44 44 46 44 46 45 44 46 48 48 48 50 51 49 50 49 50 50 50 50 50 50 51 50 51 51 54 54 54 54 55 54 55 56 55 55 55 54 54 53 53 53 53 52 48 46 45 42 41 41 41
27 28 30 26 29 24 24 25 25 31 28 22 27 25 24 23 23 23 25 25 23 23 23 23 22 21 21 25 26 28 27 30 32 30 32 33 33 36 40 42 41 38 37 39 41 40 42 45 43 42 45 45 44 45 49 48 49 50 49 49 49 50 50 50 50 49 50 50 49 50 50 51 52 52 52 54 53 54 54 54 54 54 53 53 53 53 53 51 52 50 47 44 44 43 41 41 41
29 30 28 28 26 28 25 26 26 27 27 24 26 24 23 22 21 21 19 17 19 19 20 19 18 18 20 21 24 27 27 29 28 27 30 29 35 37 36 38 38 38 36 36 38 41 43 44 45 46 47 47 45 47 49 49 48 49 47 48 48 49 48 47 49 49 49 49 48 49 48 49 50 50 51 52 53 53 53 53 52 53 52 52 51 51 52 51 51 50 48 45 43 43 42 43 42
29 29 28 25 30 25 22 27 29 29 26 26 26 24 22 20 19 16 15 12 14 17 20 21 23 19 18 18 23 26 24 28 28 26 23 25 30 34 36 38 38 40 39 38 38 39 40 43 44 47 47 47 48 47 48 49 47 46 48 49 49 47 48 47 47 47 48 49 49 47 47 48 49 49 50 51 51 52 52 52 52 51 51 51 50 49 49 50 50 50 51 47 44 41 41 41 43
32 31 30 27 28 27 26 23 26 31 30 29 26 25 20 18 14 13 16 18 18 20 20 22 23 24 22 24 26 27 24 28 30 24 25 25 27 29 32 37 38 37 38 37 38 37 38 41 44 47 46 47 48 46 47 48 47 48 47 48 48 48 48 48 47 48 48 48 49 48 46 47 47 48 49 50 50 51 51 51 51 51 50 50 50 50 49 49 50 49 48 45 44 42 41 40 41
28 31 28 26 26 27 26 25 26 25 25 25 29 15 14 16 17 18 16 16 16 21 23 23 24 25 27 23 25 26 29 30 30 26 27 31 29 30 32 35 36 35 33 36 37 37 38 40 44 46 47 48 47 47 48 46 46 46 46 47 46 47 47 47 48 48 48 47 48 45 45 43 45 47 47 48 49 49 50 51 51 51 51 51 50 50 50 49 48 48 49 47 46 44 42 41 41
26 27 28 27 27 27 27 25 28 23 20 26 27 19 18 18 17 16 16 18 14 14 20 16 15 17 19 24 23 24 25 27 30 30 31 29 31 31 31 31 33 33 31 33 33 36 40 42 46 47 46 47 47 47 47 46 47 45 45 46 45 45 44 46 46 47 48 48 47 46 45 42 43 45 45 46 47 47 48 49 50 50 50 50 49 49 48 49 49 49 49 49 49 49 48 43 42
24 33 30 30 28 28 28 29 28 24 28 31 26 24 18 16 15 17 22 15 12 13 12 17 17 18 19 21 23 25 26 25 30 32 29 29 30 31 29 31 30 30 32 35 34 36 39 40 44 45 46 47 47 46 47 46 46 46 47 46 46 46 45 44 45 45 44 43 44 44 43 41 41 41 43 44 45 45 46 47 48 48 48 49 48 49 48 48 49 49 48 48 49 49 47 46 43
29 32 31 31 29 28 28 29 26 26 23 23 23 26 17 17 16 16 17 12 11 11 9 17 20 22 22 27 27 29 31 32 30 34 31 30 30 31 29 31 29 29 32 32 32 34 38 40 43 44 44 46 47 47 46 46 46 46 47 46 47 46 46 46 46 45 44 43 42 41 42 41 40 40 40 41 42 41 41 44 46 46 46 46 44 47 47 47 48 47 47 45 44 44 45 46 45
33 31 32 32 32 32 31 27 26 26 23 22 20 23 17 14 16 14 15 13 11 11 12 14 18 23 23 26 25 25 29 32 33 29 31 31 31 31 31 30 31 32 33 35 34 34 38 40 42 43 43 45 47 47 46 46 46 46 46 47 47 47 46 45 45 44 44 43 43 44 41 41 41 39 39 40 41 41 42 42 44 45 44 43 41 43 45 45 45 46 47 46 45 44 44 43 43
33 32 31 31 30 29 27 26 25 25 22 24 23 21 16 14 15 12 15 16 10 11 13 15 21 23 23 28 26 28 23 24 29 32 31 32 32 31 31 31 32 33 34 34 35 34 36 40 42 42 42 44 45 46 46 46 46 45 45 46 47 47 47 46 44 44 43 42 42 42 42 41 40 40 39 37 39 39 40 40 39 40 39 40 39 41 42 41 39 42 42 41 41 41 40 41 41
33 31 29 29 28 24 24 24 24 22 19 17 18 20 18 15 13 14 15 16 16 13 10 10 14 16 25 27 26 26 26 26 28 29 30 32 31 32 32 32 33 34 34 34 35 37 39 39 41 40 42 43 44 46 46 46 46 45 45 45 45 46 46 46 45 45 43 43 42 42 42 41 40 39 38 38 37 36 38 37 39 38 39 39 39 39 38 39 40 41 42 42 42 42 42 38 38
31 29 30 25 22 22 20 19 17 20 18 16 18 20 17 16 14 14 17 15 13 22 20 15 16 18 22 24 28 30 30 29 31 32 34 35 35 34 34 33 34 36 36 35 36 38 38 39 39 39 39 42 43 45 45 46 45 45 45 44 44 45 46 45 45 44 45 43 43 42 41 40 40 39 38 37 37 37 37 37 37 38 37 38 37 38 37 37 38 38 39 38 40 41 40 40 40
29 28 28 24 20 20 18 17 15 14 12 16 14 20 13 14 14 17 16 15 16 16 20 21 22 20 21 24 29 28 34 33 33 34 35 36 36 36 34 35 35 36 36 37 37 37 38 39 38 38 37 40 42 44 44 45 45 45 45 44 44 44 44 45 45 44 44 43 43 42 42 41 41 40 40 39 38 37 36 37 37 36 37 37 37 37 36 36 37 36 36 37 37 37 40 39 39
29 32 28 25 23 20 17 15 14 16 12 11 15 19 18 12 12 16 13 17 18 20 21 23 25 27 27 28 28 29 31 31 34 36 33 34 34 34 37 38 41 41 40 39 38 38 38 37 38 37 38 39 41 42 44 44 44 45 44 45 45 44 44 44 43 44 43 43 42 42 42 41 41 41 41 41 38 38 37 35 36 35 34 34 35 34 34 34 34 34 35 35 36 36 36 37 37
30 31 30 27 25 22 19 18 17 17 17 17 17 15 13 14 17 19 19 20 20 20 21 23 23 24 28 28 28 29 31 31 33 32 33 32 33 34 37 38 38 39 38 40 38 40 41 39 38 38 37 38 39 40 41 42 42 42 43 43 44 43 43 43 43 42 42 42 42 41 41 40 41 40 39 38 35 36 34 33 33 33 33 33 33 33 33 33 32 33 33 33 34 34 34 35 36
28 28 27 27 24 24 24 18 15 15 17 17 21 15 17 14 12 12 12 18 18 20 19 20 21 21 25 26 27 23 27 35 36 32 31 32 32 34 36 36 38 37 38 39 39 40 40 39 38 37 37 38 39 39 39 41 41 41 42 42 42 43 43 42 42 41 41 41 42 41 40 39 38 37 36 36 35 33 33 33 33 32 32 32 32 31 32 33 33 33 33 33 33 32 33 34 35
28 26 26 28 26 29 26 20 19 19 17 18 15 16 15 13 14 17 17 13 14 16 18 16 17 22 21 24 28 28 33 34 32 30 31 33 35 34 35 36 35 35 37 37 36 37 39 38 38 37 36 37 38 38 38 39 39 40 41 42 42 42 41 42 42 40 41 40 39 39 38 37 36 37 35 35 33 32 32 32 32 32 31 31 31 31 31 32 32 32 33 33 33 32 32 33 33
28 28 32 25 23 22 22 22 19 18 18 17 17 15 16 15 14 11 10 12 11 11 12 13 12 16 18 21 25 28 28 30 31 29 33 36 38 39 37 35 33 33 33 34 36 36 37 37 37 36 36 37 37 39 38 37 38 40 42 41 41 41 41 40 41 41 39 39 37 37 36 36 35 33 33 32 32 31 31 31 31 31 31 30 30 30 29 30 30 31 31 31 31 31 31 31 31
33 31 28 30 26 25 22 22 20 17 16 16 18 16 13 18 15 13 11 10 9 9 12 12 11 12 14 21 23 27 32 31 32 32 33 37 37 34 33 33 34 34 33 33 34 36 35 36 36 36 36 35 36 36 36 35 36 37 39 38 39 40 40 40 39 39 37 37 36 35 34 34 33 32 32 32 31 31 31 31 31 31 30 30 29 29 29 29 29 30 30 31 30 30 30 31 30
29 28 28 28 27 25 23 23 21 19 18 16 15 16 19 16 15 14 13 11 11 11 12 13 15 15 18 19 24 28 31 33 34 34 31 32 32 31 32 32 33 33 34 34 35 35 34 35 35 34 33 33 34 34 34 35 35 36 35 35 36 37 37 37 37 36 36 35 35 34 34 33 31 31 31 30 30 30 30 31 30 30 30 29 29 29 29 30 30 30 30 30 30 29 29 29 29
29 29 28 28 26 24 22 21 23 20 19 18 15 16 19 15 17 15 14 13 13 14 16 16 17 16 20 25 25 26 29 29 28 30 28 30 30 31 31 32 35 33 34 32 32 33 33 34 34 33 33 33 33 33 34 34 35 35 35 35 35 35 36 36 36 35 35 35 34 33 32 31 31 31 30 30 30 30 30 30 30 30 29 29 29 28 30 30 30 29 29 28 29 29 29 29 28